Location: *
(41.7492°S, 135.4150°W)
Time: 21:48:26
(UTC+00:00)

METEOR M2 - Pass Details

Date: 10 July 2022
Orbit: 818 x 827 km, 98.4° (Epoch: 17 August)

Event Time Altitude Azimuth Distance (km) Brightness Sun altitude
Exits shadow 04:52:12 38° 231° (SW) 1,255 ? -33.9°
Maximum altitude 04:52:53 40° 249° (WSW) 1,220 ? -34.0°
Drops below altitude 10° 04:57:51 10° 316° (NW) 2,429 ? -35.0°
Sets 05:00:19 0° 323° (NW) 3,355 ? -35.4°
